Theta_e
309 309 309 307 305 304 303 303 303 303 304 305 305 306 307 307 308 308 309 311 312 312 312 313 313 313 313 322 325 324 324 323 321 320 326 329 329 333 335 337 336 336 340 339 338 339 340
310 310 309 309 308 306 304 303 303 303 303 303 304 305 306 306 307 308 309 310 311 313 313 313 313 313 312 321 323 326 324 326 324 325 326 329 329 332 333 335 335 335 336 337 336 337 338
312 310 309 309 309 309 308 306 304 303 304 304 304 304 305 306 306 307 308 309 310 312 313 314 313 312 317 319 325 325 325 328 326 328 326 328 329 330 332 333 333 334 335 336 336 336 339
313 313 312 310 310 309 309 308 308 306 304 304 305 305 305 306 307 307 308 309 310 311 313 313 313 313 320 320 324 325 325 326 327 328 327 328 327 328 330 331 332 333 334 336 337 338 338
313 313 312 312 311 311 310 310 309 307 305 304 304 304 306 306 307 307 309 310 311 311 312 313 314 321 327 325 326 326 326 325 325 326 328 327 327 326 327 330 331 333 335 336 337 339 339
313 313 312 311 311 311 310 310 310 310 308 306 304 304 306 306 306 308 309 311 312 314 316 318 318 329 329 328 328 326 326 325 325 327 326 327 327 328 327 329 331 333 335 337 338 341 340
312 312 312 311 310 311 311 310 310 310 309 308 307 306 306 307 307 307 309 313 321 324 326 328 329 324 326 329 327 329 328 328 327 327 328 328 328 328 329 329 332 333 336 338 338 342 341
311 311 311 311 311 311 310 310 310 309 309 309 308 307 308 308 308 307 311 317 317 315 316 317 319 325 328 328 328 329 327 328 327 327 329 328 328 327 328 331 331 333 335 338 339 343 343
309 309 309 309 308 308 308 308 309 309 309 309 309 307 307 309 308 316 313 313 316 315 316 318 319 319 322 328 328 326 327 329 327 327 329 328 328 327 328 330 332 333 335 337 339 341 341
310 309 309 309 308 308 307 306 306 306 307 307 307 306 305 307 311 313 314 316 313 314 317 322 324 322 321 322 324 323 325 328 329 327 327 329 329 328 327 329 331 334 334 335 337 342 344
310 309 309 308 308 308 307 307 305 304 304 305 305 305 304 304 306 309 314 313 313 315 323 329 326 325 324 323 326 324 324 325 327 329 329 328 328 328 327 328 330 334 335 335 336 340 344
310 309 309 308 307 308 307 306 305 304 304 304 304 304 304 306 308 312 311 312 314 319 323 327 328 327 325 324 326 329 324 324 325 326 329 329 328 329 328 328 329 332 334 335 336 338 341
309 309 309 308 307 308 307 306 305 305 304 305 304 304 304 304 309 311 312 313 317 320 326 328 329 329 329 327 326 329 327 326 328 328 329 330 329 329 329 328 329 329 332 336 337 339 340
308 307 307 307 307 307 306 305 305 305 304 304 305 305 306 308 310 310 310 314 318 323 323 327 328 329 328 329 328 329 330 329 328 328 329 330 330 329 329 328 328 329 330 336 339 340 339
305 306 306 306 306 305 305 305 305 305 305 304 304 307 309 310 311 312 313 313 319 321 325 326 327 327 328 328 329 328 329 329 328 328 330 330 330 331 329 330 328 329 329 331 334 336 338
304 304 305 305 305 305 305 305 305 304 304 304 304 308 312 313 312 312 314 316 318 319 322 324 325 326 328 329 328 329 329 330 330 328 329 329 331 331 331 330 330 328 330 329 332 338 341
304 304 304 304 305 305 305 305 305 304 304 304 307 310 310 312 313 314 318 316 317 317 318 319 320 322 325 328 329 329 329 330 330 330 329 328 331 330 332 331 329 328 328 329 331 334 338
303 303 303 303 303 303 303 303 303 304 304 305 307 310 312 313 315 316 318 318 317 318 318 320 321 321 321 322 327 328 330 329 329 330 330 329 329 332 331 332 331 329 329 328 330 336 335
303 303 303 303 302 303 303 303 303 303 304 305 306 307 308 309 313 313 314 315 317 319 320 321 321 320 321 321 324 325 328 329 329 329 329 331 331 333 330 331 333 330 329 329 328 330 334
302 302 302 303 303 302 302 302 302 303 303 304 306 309 308 309 310 312 313 313 314 314 317 318 320 321 322 322 323 324 324 327 328 329 327 331 330 333 333 333 332 333 331 330 329 329 332
301 301 301 302 303 303 303 302 302 302 302 304 305 308 308 309 310 312 312 314 315 316 315 316 319 320 321 323 322 321 322 323 326 329 330 329 333 332 330 330 332 333 331 331 331 332 333
300 300 301 301 302 303 303 303 303 302 301 303 304 306 307 308 308 309 309 310 311 312 314 313 315 318 319 320 320 320 322 324 326 328 328 328 332 331 332 332 331 332 333 331 330 331 331
301 300 301 301 301 302 303 302 303 303 302 303 304 304 306 308 308 308 308 308 310 311 311 313 313 315 317 317 316 315 316 319 324 327 330 331 329 334 334 331 332 333 333 333 332 329 330
300 301 301 301 301 302 303 302 303 303 303 303 303 305 304 307 307 308 309 308 309 311 310 311 310 313 313 312 314 316 318 321 323 324 325 333 332 332 334 335 336 333 332 332 331 332 332
301 301 302 301 301 302 302 302 302 303 303 303 303 305 302 306 306 306 308 308 308 309 308 309 310 310 310 312 315 318 321 323 324 325 326 329 334 334 337 335 335 334 335 336 334 333 334
302 303 303 302 301 302 303 303 302 302 303 302 302 303 303 302 305 305 308 306 308 309 309 310 311 311 310 312 314 318 320 323 325 326 327 328 335 335 336 337 340 339 336 338 337 339 339
302 303 303 302 302 302 302 302 302 302 302 302 303 304 303 300 303 304 307 308 308 308 309 310 312 314 312 312 314 316 320 321 325 327 327 329 333 334 335 334 334 337 338 335 338 340 343
303 302 302 301 302 302 302 301 302 302 303 302 303 304 304 302 303 304 305 306 306 306 308 309 308 314 312 312 315 316 319 321 323 327 329 329 328 333 338 340 342 338 337 339 344 341 340
301 301 301 301 301 301 301 302 302 302 302 302 303 304 304 305 303 304 305 306 306 306 307 307 309 309 313 315 318 320 321 324 325 325 325 327 327 328 332 334 339 341 343 341 340 340 340
Wind_Speed
25 25 24 23 22 22 22 22 21 20 20 21 21 21 20 20 21 21 22 22 21 21 20 19 19 19 18 12 27 19 16 15 16 11 22 23 25 24 20 18 22 16 21 17 6 9 11
26 25 25 24 24 23 23 23 23 23 23 23 22 22 22 22 22 22 22 22 23 21 20 20 18 18 15 19 10 11 11 12 11 15 21 24 22 22 24 22 21 20 13 14 13 9 14
28 28 27 26 25 25 24 23 23 24 23 23 24 24 23 23 24 24 23 22 23 22 21 19 18 17 15 32 11 9 8 13 10 15 20 23 23 22 24 20 25 26 19 9 11 11 9
27 28 28 29 29 29 29 27 25 24 24 24 24 24 24 23 24 26 26 23 23 21 21 20 16 13 14 20 16 21 17 17 15 16 17 19 21 24 24 22 24 22 20 16 18 17 11
26 26 26 27 28 29 29 29 29 28 27 26 25 25 24 24 24 24 24 23 24 21 20 19 11 7 17 10 19 19 19 21 18 17 18 18 21 24 23 19 18 21 18 21 21 13 17
28 27 27 26 27 27 28 29 30 30 29 28 28 27 26 25 24 25 22 19 20 20 16 12 13 9 25 19 14 15 15 20 20 18 19 20 21 16 18 17 16 19 21 19 18 18 18
28 29 31 31 31 30 30 30 30 31 31 31 29 29 28 25 23 22 19 13 11 6 7 17 12 16 15 14 17 15 13 18 20 20 18 23 16 20 24 24 23 22 20 22 15 10 17
28 29 29 29 29 31 31 31 31 31 30 31 32 31 30 26 21 13 10 8 13 12 18 25 36 36 35 16 14 19 16 17 21 18 20 19 23 24 23 25 26 27 26 24 14 21 20
27 28 28 28 29 30 30 27 29 31 32 32 32 32 31 27 14 6 13 17 12 14 13 25 39 41 42 33 29 24 23 23 16 22 22 23 22 23 24 25 27 27 26 23 20 20 22
29 29 27 28 29 30 33 32 32 32 30 31 31 31 31 30 4 8 9 7 10 13 7 11 21 26 35 35 36 36 31 29 20 22 23 24 24 24 26 27 27 26 26 27 25 15 12
29 28 28 28 30 30 30 32 33 33 31 30 28 27 29 17 22 16 10 12 15 8 7 4 17 6 18 36 6 36 39 34 27 24 19 23 25 26 26 28 28 26 26 26 25 12 18
26 26 26 27 29 28 28 31 33 32 30 29 28 25 25 17 14 11 11 15 10 7 11 7 12 12 18 26 30 11 34 36 32 27 25 25 25 27 26 22 27 25 25 25 22 19 17
25 26 27 27 27 27 29 31 31 32 32 33 29 25 20 21 20 9 5 8 6 11 8 14 16 15 21 21 27 17 23 27 22 24 25 25 26 25 24 25 25 28 23 16 17 17 16
28 28 27 27 27 28 30 32 30 31 34 35 30 29 21 18 16 8 8 8 16 12 28 16 15 19 21 22 25 24 22 22 27 26 18 21 20 27 22 28 24 26 26 16 21 17 19
28 26 25 27 29 31 30 28 28 30 34 36 32 26 25 16 16 14 17 15 11 19 19 20 23 20 23 25 24 26 27 23 25 29 25 20 24 19 30 23 26 26 25 27 26 23 17
29 28 28 29 28 26 26 27 27 29 31 31 31 28 22 13 16 21 14 29 17 25 25 22 23 22 26 25 27 27 27 27 25 28 28 24 18 23 22 24 28 29 18 23 20 25 25
27 27 27 26 26 27 26 26 26 27 28 26 21 16 20 7 14 19 17 24 26 42 40 29 29 30 28 25 28 28 28 24 27 25 27 26 22 19 24 26 26 18 22 23 20 21 17
27 27 27 26 26 26 27 26 25 25 26 19 18 9 2 7 14 16 18 27 32 31 41 31 29 33 31 30 28 28 30 27 24 21 29 26 17 19 25 24 27 29 27 27 17 21 19
27 27 27 27 26 26 24 22 21 21 19 17 16 25 25 25 15 16 24 30 31 28 29 32 32 31 29 30 28 30 29 27 29 27 25 20 21 16 24 23 23 30 27 24 24 21 24
29 29 29 28 26 25 24 22 20 18 16 11 10 6 20 22 31 24 23 26 27 33 24 28 27 24 32 32 29 29 28 29 24 22 7 14 18 27 18 21 18 24 29 28 26 18 20
29 30 29 28 27 25 24 22 18 16 15 9 7 8 18 12 18 21 13 23 18 24 28 25 22 21 19 21 29 29 30 30 27 23 14 15 17 21 28 28 25 26 27 27 26 24 23
30 29 28 28 27 25 23 21 19 15 13 11 6 12 15 22 27 24 19 17 25 23 23 19 19 20 21 19 14 18 22 27 25 25 19 21 17 18 22 24 27 26 26 27 28 29 27
30 30 29 28 26 25 22 20 18 15 14 10 11 17 11 13 16 16 18 20 19 23 18 25 19 11 21 17 29 37 36 36 29 23 21 20 16 16 20 24 24 24 28 22 21 24 24
30 30 28 28 27 24 21 19 17 15 18 16 15 15 6 8 14 17 26 21 17 23 11 24 25 6 14 26 36 30 30 25 24 24 25 21 20 16 17 18 24 19 19 25 24 22 20
30 30 28 26 25 22 19 18 17 16 16 19 19 17 7 4 16 19 27 12 17 27 16 24 33 23 10 7 8 12 13 17 20 26 24 20 16 15 15 19 18 21 16 9 17 19 16
29 28 26 24 23 20 16 16 16 16 12 16 19 20 12 5 10 23 19 23 16 14 14 19 28 12 9 3 2 3 5 11 17 22 13 15 8 12 13 18 25 18 17 7 8 6 9
30 26 23 21 18 16 14 15 16 15 13 16 19 15 18 6 24 23 18 14 14 5 8 18 14 10 10 4 3 3 5 10 12 18 14 12 8 13 13 14 19 6 9 14 12 5 6
25 22 19 17 14 12 13 14 15 15 12 13 15 11 19 11 23 28 30 29 24 23 10 9 10 7 8 8 6 6 7 10 14 13 15 10 10 12 11 9 8 22 12 19 3 3 4
22 20 17 15 15 14 13 15 12 10 11 12 15 11 14 21 21 29 24 29 31 27 23 17 9 13 7 3 2 3 8 8 13 10 15 13 15 11 11 9 6 10 9 8 6 5 7
Wind_Direction
11 10 8 7 3 359 356 353 349 344 339 335 330 326 324 321 317 311 307 305 303 302 302 302 302 302 305 270 258 278 249 259 262 244 207 215 226 230 244 243 253 234 191 247 203 168 189
4 3 3 5 2 359 355 353 350 345 340 338 334 329 326 323 317 311 306 303 300 299 299 299 299 296 293 264 273 227 266 251 229 209 211 215 226 227 243 248 259 255 236 247 262 222 180
357 357 357 358 358 356 354 350 347 344 340 335 332 328 326 322 319 314 309 305 299 296 295 293 295 288 263 248 258 209 239 221 213 212 214 219 227 234 237 255 256 268 277 243 249 261 177
354 352 350 349 349 349 350 348 347 343 339 336 330 327 326 324 319 316 313 309 300 295 289 288 286 275 258 273 254 241 235 227 227 220 222 224 225 240 246 245 255 265 254 255 231 200 170
349 348 345 343 341 340 341 342 342 342 341 338 334 329 326 329 321 316 311 310 304 296 285 280 280 244 269 264 226 229 230 222 221 226 226 224 225 225 237 249 249 243 250 231 252 181 153
344 343 343 340 337 336 335 335 335 334 334 335 333 330 329 329 326 322 318 311 304 292 285 271 229 259 251 231 216 221 216 214 219 213 219 217 224 225 220 226 231 232 229 238 218 202 182
339 338 339 340 338 334 332 331 330 329 329 329 331 328 327 327 329 327 328 339 315 298 230 237 214 222 275 224 230 198 198 205 214 207 212 205 216 217 219 218 232 246 243 233 230 193 204
339 337 335 334 334 333 332 329 327 326 326 324 326 328 325 324 328 328 336 325 331 309 299 262 254 250 252 223 204 209 215 205 214 210 208 212 220 223 221 215 226 244 255 254 205 184 219
338 337 336 339 340 342 344 334 329 329 330 328 326 328 328 323 329 358 309 294 294 317 289 283 243 236 228 233 241 231 211 208 214 217 208 224 218 225 225 219 216 233 244 252 253 184 202
332 335 333 334 334 337 342 343 343 338 331 329 328 328 330 328 319 291 321 324 327 317 279 267 225 234 222 222 236 230 224 211 222 224 226 228 237 210 226 220 220 226 234 251 262 166 202
328 330 332 331 330 331 338 340 341 337 333 330 329 326 324 334 306 297 293 313 314 298 282 123 180 220 198 201 203 214 216 221 224 222 230 230 226 235 210 225 222 231 230 238 255 230 204
323 323 324 326 326 327 330 332 334 332 330 327 328 327 321 321 288 320 314 310 308 241 244 247 149 188 185 203 218 177 195 215 226 233 231 241 232 227 236 213 230 231 241 248 243 253 249
322 320 319 321 323 323 325 327 329 330 329 328 324 321 309 296 276 289 320 250 225 231 236 232 190 192 208 195 215 169 187 201 216 212 223 229 235 237 224 233 211 230 225 235 238 237 247
321 320 321 319 319 319 321 323 324 327 327 327 323 322 312 287 275 274 268 239 232 239 223 276 283 198 210 208 208 215 195 210 211 215 219 221 223 227 220 223 223 215 228 227 228 230 242
319 320 316 313 313 316 318 321 323 325 326 329 323 323 308 272 247 227 232 226 229 226 275 240 258 259 215 218 227 208 205 214 215 215 222 220 228 227 224 218 224 214 225 227 239 241 248
320 317 313 313 316 318 320 321 322 323 324 333 324 314 300 297 223 212 226 234 240 257 275 285 269 274 250 218 219 223 211 209 218 213 224 241 252 214 212 225 222 229 217 222 235 239 241
323 319 316 315 315 314 314 317 319 322 323 333 323 303 290 241 194 219 234 245 249 265 275 278 284 276 274 246 243 227 227 227 210 216 211 227 251 245 207 204 222 214 228 235 233 239 247
327 325 325 325 319 313 311 311 313 317 321 337 308 274 9 251 245 237 249 256 262 267 275 278 265 259 267 280 268 258 228 229 232 219 217 211 227 244 248 214 211 220 215 227 239 232 233
324 323 322 321 317 315 315 317 317 313 320 324 300 286 269 270 265 260 267 270 267 266 261 264 268 271 273 260 268 271 267 246 223 226 227 218 215 229 240 248 222 211 225 228 230 250 254
319 316 314 311 310 312 312 313 313 316 311 316 300 299 304 258 245 253 268 271 276 277 282 278 274 286 269 263 255 265 269 273 249 224 92 205 237 217 236 228 229 219 219 219 230 232 242
321 316 312 310 308 304 305 308 309 308 303 301 274 276 302 304 298 303 5 314 306 297 295 297 303 297 307 284 257 251 256 268 267 240 209 223 240 247 218 249 238 231 220 226 224 237 244
323 321 318 313 307 305 297 294 299 296 299 261 258 298 319 298 297 298 293 258 271 274 284 313 290 289 306 295 345 319 308 255 255 245 209 217 234 249 249 235 238 250 229 229 221 226 236
326 321 320 318 312 305 302 293 288 284 280 268 269 284 298 283 290 290 290 296 294 290 285 311 333 292 293 323 320 307 293 285 285 245 242 202 227 228 240 241 245 238 241 244 240 225 227
322 321 316 315 317 308 301 298 285 279 274 260 270 280 277 283 294 292 301 295 301 311 284 290 288 263 278 318 311 300 279 264 266 260 245 215 203 228 232 231 237 245 232 232 247 256 245
321 319 316 312 316 309 301 300 292 285 281 264 270 258 230 272 277 291 287 313 307 275 280 267 282 263 245 345 339 324 261 259 243 241 238 230 196 221 226 230 242 233 217 271 231 236 260
324 322 318 314 311 312 300 294 296 295 282 268 270 257 252 261 266 268 304 300 298 303 301 278 305 281 189 123 27 292 304 265 219 223 251 245 198 227 215 225 234 224 240 100 34 272 332
328 323 320 317 315 312 307 301 295 293 275 271 275 263 237 250 276 277 277 301 305 324 298 307 336 298 182 144 142 262 271 272 251 206 211 230 239 221 222 227 234 281 160 148 196 210 7
342 338 329 326 322 317 315 312 304 292 283 281 277 266 253 241 274 274 274 276 273 260 257 298 325 243 230 189 180 191 264 277 271 236 209 221 221 233 230 198 248 125 150 231 32 53 320
349 349 350 345 338 328 314 316 313 300 292 286 273 277 276 251 263 283 273 258 262 259 271 256 234 272 332 266 234 258 255 304 294 281 259 232 244 243 255 258 230 88 85 110 145 108 20